TimeCDT,TemperatureF,Dew PointF,Humidity,Sea Level PressureIn,VisibilityMPH,Wind Direction,Wind SpeedMPH,Gust SpeedMPH,PrecipitationIn,Events,Conditions,WindDirDegrees,DateUTC
12:53 AM,39.9,23.0,51,29.89,10.0,SE,4.6,-,N/A,,Clear,140,2012-10-08 05:53:00
1:53 AM,44.1,23.0,43,29.88,10.0,SSW,5.8,-,N/A,,Clear,200,2012-10-08 06:53:00
2:53 AM,42.1,23.0,47,29.86,10.0,South,4.6,-,N/A,,Partly Cloudy,190,2012-10-08 07:53:00
3:53 AM,42.1,24.1,49,29.84,10.0,South,6.9,-,N/A,,Partly Cloudy,190,2012-10-08 08:53:00
4:53 AM,41.0,24.1,51,29.83,10.0,South,5.8,-,N/A,,Scattered Clouds,190,2012-10-08 09:53:00
5:53 AM,41.0,25.0,53,29.82,10.0,South,5.8,-,N/A,,Scattered Clouds,180,2012-10-08 10:53:00
6:53 AM,41.0,26.1,55,29.81,10.0,South,5.8,-,N/A,,Mostly Cloudy,190,2012-10-08 11:53:00
7:53 AM,42.1,27.0,55,29.80,10.0,South,6.9,-,N/A,,Overcast,170,2012-10-08 12:53:00
8:53 AM,44.1,28.0,53,29.79,10.0,South,4.6,-,N/A,,Overcast,170,2012-10-08 13:53:00
9:53 AM,46.0,28.9,51,29.78,10.0,SSE,6.9,-,N/A,,Overcast,150,2012-10-08 14:53:00
10:53 AM,50.0,28.9,44,29.75,10.0,South,10.4,-,N/A,,Overcast,180,2012-10-08 15:53:00
11:53 AM,52.0,30.0,43,29.73,10.0,South,10.4,-,N/A,,Overcast,180,2012-10-08 16:53:00
12:53 PM,55.0,30.9,40,29.68,10.0,South,15.0,20.7,N/A,,Overcast,170,2012-10-08 17:53:00
1:53 PM,57.9,32.0,37,29.65,10.0,South,11.5,17.3,N/A,,Overcast,180,2012-10-08 18:53:00
2:53 PM,59.0,33.1,38,29.63,10.0,South,12.7,19.6,0.00,Rain,Light Rain,180,2012-10-08 19:53:00
3:53 PM,63.0,32.0,31,29.60,10.0,SSW,16.1,23.0,0.00,,Overcast,210,2012-10-08 20:53:00
4:53 PM,64.0,30.0,28,29.60,10.0,SSW,11.5,-,N/A,,Overcast,210,2012-10-08 21:53:00
5:53 PM,64.0,33.1,31,29.61,10.0,West,9.2,-,0.00,,Overcast,260,2012-10-08 22:53:00
6:53 PM,62.1,36.0,38,29.64,10.0,West,15.0,-,N/A,,Mostly Cloudy,280,2012-10-08 23:53:00
7:53 PM,60.1,39.0,46,29.67,10.0,West,13.8,-,N/A,,Overcast,280,2012-10-09 00:53:00
8:53 PM,57.2,37.4,48,29.70,10.0,WNW,16.1,25.3,N/A,,Overcast,300,2012-10-09 01:53:00
9:53 PM,54.0,37.9,55,29.74,10.0,WNW,16.1,21.9,N/A,,Overcast,300,2012-10-09 02:53:00
10:53 PM,52.0,36.0,54,29.75,10.0,WNW,5.8,-,N/A,,Overcast,290,2012-10-09 03:53:00
11:53 PM,51.1,37.0,59,29.75,10.0,SW,3.5,-,N/A,,Overcast,230,2012-10-09 04:53:00